Location: Pallagorio
(39.3000°N, 16.9000°E)
Time: 20:58:35
(UTC+00:00)

Cosmos 1346 Rocket - Pass Details

Date: 24 January 2021
Orbit: 531 x 546 km, 81.2° (Epoch: 02 March)

Event Time Altitude Azimuth Distance (km) Brightness Sun altitude
Rises 16:59:06 0° 149° (SSE) 2,661 6.2 -10.9°
Reaches altitude 10° 17:01:51 10° 128° (SE) 1,777 5.1 -11.4°
Enters shadow 17:04:04 16° 94° (E) 1,430 4.3 -11.8°
